Time,TemperatureF,DewpointF,PressureIn,WindDirection,WindDirectionDegrees,WindSpeedMPH,WindSpeedGustMPH,Humidity,HourlyPrecipIn,Conditions,Clouds,dailyrainin,SoftwareType,DateUTC
2013-08-09 00:05:00,61.3,60.0,30.00,NNW,328,0.0,0.0,95,0.00,,,0.00,weatherlink.com 1.10,2013-08-09 04:05:00,
2013-08-09 00:19:00,61.2,60.0,30.00,NNW,328,0.0,0.0,95,0.00,,,0.00,weatherlink.com 1.10,2013-08-09 04:19:00,
2013-08-09 00:34:00,61.0,60.0,30.00,NNW,328,0.0,0.0,95,0.00,,,0.00,weatherlink.com 1.10,2013-08-09 04:34:00,
2013-08-09 00:49:00,61.0,60.0,30.00,NNW,328,0.0,0.0,95,0.00,,,0.00,weatherlink.com 1.10,2013-08-09 04:49:00,
2013-08-09 01:04:00,60.8,59.0,30.00,NNW,328,0.0,0.0,94,0.00,,,0.00,weatherlink.com 1.10,2013-08-09 05:04:00,
2013-08-09 01:19:00,60.9,60.0,30.00,NNW,328,0.0,0.0,95,0.00,,,0.00,weatherlink.com 1.10,2013-08-09 05:19:00,
2013-08-09 01:34:00,60.8,59.0,30.00,NNW,328,0.0,0.0,95,0.00,,,0.00,weatherlink.com 1.10,2013-08-09 05:34:00,
2013-08-09 01:49:00,60.6,59.0,30.00,NNW,328,0.0,0.0,95,0.00,,,0.00,weatherlink.com 1.10,2013-08-09 05:49:00,
2013-08-09 02:04:00,60.7,59.0,30.00,NNW,328,0.0,0.0,95,0.00,,,0.00,weatherlink.com 1.10,2013-08-09 06:04:00,
2013-08-09 02:20:00,60.5,59.0,30.00,NNW,328,0.0,0.0,95,0.00,,,0.00,weatherlink.com 1.10,2013-08-09 06:20:00,
2013-08-09 02:35:00,60.3,59.0,30.00,NNW,328,0.0,0.0,95,0.00,,,0.00,weatherlink.com 1.10,2013-08-09 06:35:00,
2013-08-09 02:50:00,60.2,59.0,29.99,NNW,328,0.0,0.0,95,0.00,,,0.00,weatherlink.com 1.10,2013-08-09 06:50:00,
2013-08-09 03:05:00,59.8,58.0,29.99,NNW,328,0.0,0.0,95,0.00,,,0.00,weatherlink.com 1.10,2013-08-09 07:05:00,
2013-08-09 03:20:00,59.6,58.0,29.99,NNW,328,0.0,0.0,95,0.00,,,0.00,weatherlink.com 1.10,2013-08-09 07:20:00,
2013-08-09 03:35:00,59.4,58.0,29.98,NNW,328,0.0,0.0,95,0.00,,,0.00,weatherlink.com 1.10,2013-08-09 07:35:00,
2013-08-09 03:50:00,59.3,58.0,29.98,NNW,328,0.0,0.0,95,0.00,,,0.00,weatherlink.com 1.10,2013-08-09 07:50:00,
2013-08-09 04:05:00,59.0,58.0,29.98,NNW,328,0.0,0.0,95,0.00,,,0.00,weatherlink.com 1.10,2013-08-09 08:05:00,
2013-08-09 04:20:00,58.7,58.0,29.98,NNW,328,0.0,0.0,96,0.00,,,0.00,weatherlink.com 1.10,2013-08-09 08:20:00,
2013-08-09 04:35:00,58.4,57.0,29.98,NNW,328,0.0,0.0,96,0.00,,,0.00,weatherlink.com 1.10,2013-08-09 08:35:00,
2013-08-09 04:50:00,58.0,57.0,29.98,NNW,328,0.0,0.0,96,0.00,,,0.00,weatherlink.com 1.10,2013-08-09 08:50:00,
2013-08-09 05:05:00,57.5,56.0,29.99,NNW,328,0.0,0.0,96,0.00,,,0.00,weatherlink.com 1.10,2013-08-09 09:05:00,
2013-08-09 05:20:00,57.5,57.0,29.99,NW,326,0.0,0.0,97,0.00,,,0.00,weatherlink.com 1.10,2013-08-09 09:20:00,
2013-08-09 05:35:00,57.5,57.0,30.00,NNW,328,0.0,0.0,97,0.00,,,0.00,weatherlink.com 1.10,2013-08-09 09:35:00,
2013-08-09 05:50:00,57.1,56.0,29.99,NNW,328,0.0,0.0,97,0.00,,,0.00,weatherlink.com 1.10,2013-08-09 09:50:00,
2013-08-09 06:05:00,56.5,56.0,29.99,NNW,328,0.0,0.0,97,0.00,,,0.00,weatherlink.com 1.10,2013-08-09 10:05:00,
2013-08-09 06:20:00,56.1,55.0,30.00,NNW,328,0.0,0.0,97,0.00,,,0.00,weatherlink.com 1.10,2013-08-09 10:20:00,
2013-08-09 06:35:00,55.7,55.0,30.00,NW,326,0.0,0.0,97,0.00,,,0.00,weatherlink.com 1.10,2013-08-09 10:35:00,
2013-08-09 06:50:00,55.3,55.0,30.00,NW,326,0.0,0.0,97,0.00,,,0.00,weatherlink.com 1.10,2013-08-09 10:50:00,
2013-08-09 07:05:00,55.2,55.0,30.00,NW,326,0.0,0.0,98,0.00,,,0.00,weatherlink.com 1.10,2013-08-09 11:05:00,
2013-08-09 07:20:00,55.3,55.0,30.00,NW,326,0.0,0.0,98,0.00,,,0.00,weatherlink.com 1.10,2013-08-09 11:20:00,
2013-08-09 07:35:00,55.5,55.0,30.00,NW,326,0.0,0.0,98,0.00,,,0.00,weatherlink.com 1.10,2013-08-09 11:35:00,
2013-08-09 07:50:00,55.9,55.0,30.00,NNW,328,0.0,0.0,98,0.00,,,0.00,weatherlink.com 1.10,2013-08-09 11:50:00,
2013-08-09 08:05:00,56.5,56.0,30.01,NW,326,0.0,0.0,99,0.00,,,0.00,weatherlink.com 1.10,2013-08-09 12:05:00,
2013-08-09 08:20:00,57.5,57.0,30.01,NNW,328,0.0,0.0,99,0.00,,,0.00,weatherlink.com 1.10,2013-08-09 12:20:00,
2013-08-09 08:35:00,58.8,59.0,30.01,NNW,328,0.0,0.0,99,0.00,,,0.00,weatherlink.com 1.10,2013-08-09 12:35:00,
2013-08-09 08:50:00,62.1,62.0,30.02,NNW,327,0.0,0.0,99,0.00,,,0.00,weatherlink.com 1.10,2013-08-09 12:50:00,
2013-08-09 09:05:00,65.8,62.0,30.02,NNW,328,0.0,0.0,86,0.00,,,0.00,weatherlink.com 1.10,2013-08-09 13:05:00,
2013-08-09 09:21:00,69.2,63.0,30.02,SE,130,1.0,1.0,80,0.00,,,0.00,weatherlink.com 1.10,2013-08-09 13:21:00,
2013-08-09 09:36:00,70.0,63.0,30.02,West,270,0.0,1.0,79,0.00,,,0.00,weatherlink.com 1.10,2013-08-09 13:36:00,
2013-08-09 09:51:00,71.5,64.0,30.02,West,271,0.0,0.0,77,0.00,,,0.00,weatherlink.com 1.10,2013-08-09 13:51:00,
2013-08-09 10:06:00,72.2,64.0,30.02,SW,229,0.0,1.0,76,0.00,,,0.00,weatherlink.com 1.10,2013-08-09 14:06:00,
2013-08-09 10:21:00,73.2,62.0,30.01,NNE,30,1.0,2.0,69,0.00,,,0.00,weatherlink.com 1.10,2013-08-09 14:21:00,
2013-08-09 10:36:00,72.9,63.0,30.02,NNW,346,0.0,1.0,72,0.00,,,0.00,weatherlink.com 1.10,2013-08-09 14:36:00,
2013-08-09 10:51:00,73.6,62.0,30.02,ENE,62,0.0,2.0,67,0.00,,,0.00,weatherlink.com 1.10,2013-08-09 14:51:00,
2013-08-09 11:06:00,74.2,59.0,30.02,South,171,1.0,2.0,60,0.00,,,0.00,weatherlink.com 1.10,2013-08-09 15:06:00,
2013-08-09 11:21:00,74.9,62.0,30.02,WNW,285,0.0,3.0,65,0.00,,,0.00,weatherlink.com 1.10,2013-08-09 15:21:00,
2013-08-09 11:36:00,75.0,60.0,30.02,NNW,328,1.0,1.0,60,0.00,,,0.00,weatherlink.com 1.10,2013-08-09 15:36:00,
2013-08-09 11:51:00,75.5,61.0,30.02,NNW,331,1.0,3.0,60,0.00,,,0.00,weatherlink.com 1.10,2013-08-09 15:51:00,
2013-08-09 12:06:00,75.5,59.0,30.02,NNW,339,0.0,2.0,57,0.00,,,0.00,weatherlink.com 1.10,2013-08-09 16:06:00,
2013-08-09 12:21:00,75.9,59.0,30.02,NNW,329,0.0,2.0,57,0.00,,,0.00,weatherlink.com 1.10,2013-08-09 16:21:00,
2013-08-09 12:36:00,76.0,60.0,30.02,NW,322,0.0,2.0,58,0.00,,,0.00,weatherlink.com 1.10,2013-08-09 16:36:00,
2013-08-09 12:51:00,76.9,60.0,30.01,North,358,0.0,2.0,56,0.00,,,0.00,weatherlink.com 1.10,2013-08-09 16:51:00,
2013-08-09 13:06:00,77.0,60.0,30.01,SW,234,1.0,2.0,56,0.00,,,0.00,weatherlink.com 1.10,2013-08-09 17:06:00,
2013-08-09 13:21:00,77.5,62.0,30.01,North,5,0.0,2.0,60,0.00,,,0.00,weatherlink.com 1.10,2013-08-09 17:21:00,
2013-08-09 13:36:00,78.3,61.0,30.01,WSW,257,0.0,2.0,56,0.00,,,0.00,weatherlink.com 1.10,2013-08-09 17:36:00,
2013-08-09 13:51:00,78.5,62.0,30.01,NNE,13,0.0,5.0,58,0.00,,,0.00,weatherlink.com 1.10,2013-08-09 17:51:00,
2013-08-09 14:06:00,78.1,61.0,30.01,South,169,0.0,5.0,55,0.00,,,0.00,weatherlink.com 1.10,2013-08-09 18:06:00,
2013-08-09 14:21:00,78.1,62.0,30.01,NNW,327,0.0,3.0,58,0.00,,,0.00,weatherlink.com 1.10,2013-08-09 18:21:00,
2013-08-09 14:36:00,78.4,62.0,30.01,ENE,63,0.0,3.0,58,0.00,,,0.00,weatherlink.com 1.10,2013-08-09 18:36:00,
2013-08-09 14:51:00,79.0,60.0,30.01,NNW,342,0.0,4.0,53,0.00,,,0.00,weatherlink.com 1.10,2013-08-09 18:51:00,
2013-08-09 15:06:00,78.1,62.0,30.01,West,274,0.0,5.0,59,0.00,,,0.00,weatherlink.com 1.10,2013-08-09 19:06:00,
2013-08-09 15:21:00,78.1,62.0,30.00,NW,307,1.0,4.0,57,0.00,,,0.00,weatherlink.com 1.10,2013-08-09 19:21:00,
2013-08-09 15:36:00,78.2,64.0,30.00,North,8,1.0,3.0,61,0.00,,,0.00,weatherlink.com 1.10,2013-08-09 19:36:00,
2013-08-09 15:51:00,79.0,65.0,30.00,West,263,0.0,1.0,63,0.00,,,0.00,weatherlink.com 1.10,2013-08-09 19:51:00,
2013-08-09 16:06:00,77.6,65.0,30.00,North,4,0.0,2.0,65,0.00,,,0.00,weatherlink.com 1.10,2013-08-09 20:06:00,
2013-08-09 16:21:00,76.5,64.0,30.00,NW,309,0.0,2.0,66,0.00,,,0.00,weatherlink.com 1.10,2013-08-09 20:21:00,
2013-08-09 16:36:00,76.7,64.0,30.00,NNW,327,0.0,3.0,66,0.00,,,0.00,weatherlink.com 1.10,2013-08-09 20:36:00,
2013-08-09 16:51:00,76.9,64.0,30.00,NNE,20,0.0,7.0,64,0.00,,,0.00,weatherlink.com 1.10,2013-08-09 20:51:00,
2013-08-09 17:06:00,76.2,64.0,30.00,South,171,0.0,3.0,65,0.00,,,0.00,weatherlink.com 1.10,2013-08-09 21:06:00,
2013-08-09 17:21:00,76.5,65.0,30.00,ESE,115,3.0,4.0,67,0.00,,,0.00,weatherlink.com 1.10,2013-08-09 21:21:00,
2013-08-09 17:36:00,75.8,64.0,30.00,SE,129,0.0,1.0,68,0.00,,,0.00,weatherlink.com 1.10,2013-08-09 21:36:00,
2013-08-09 17:51:00,75.3,64.0,30.00,South,183,0.0,4.0,68,0.00,,,0.00,weatherlink.com 1.10,2013-08-09 21:51:00,
2013-08-09 18:06:00,75.2,65.0,30.00,ENE,64,0.0,1.0,70,0.00,,,0.00,weatherlink.com 1.10,2013-08-09 22:06:00,
2013-08-09 18:21:00,75.4,65.0,30.00,South,178,2.0,2.0,69,0.00,,,0.00,weatherlink.com 1.10,2013-08-09 22:21:00,
2013-08-09 18:36:00,74.5,65.0,30.00,NNW,337,0.0,1.0,71,0.00,,,0.00,weatherlink.com 1.10,2013-08-09 22:36:00,
2013-08-09 18:51:00,74.5,65.0,30.00,ESE,105,0.0,1.0,72,0.00,,,0.00,weatherlink.com 1.10,2013-08-09 22:51:00,
2013-08-09 19:06:00,74.2,65.0,30.00,East,86,0.0,1.0,73,0.00,,,0.00,weatherlink.com 1.10,2013-08-09 23:06:00,
2013-08-09 19:21:00,73.3,65.0,29.99,East,86,0.0,0.0,75,0.00,,,0.00,weatherlink.com 1.10,2013-08-09 23:21:00,
2013-08-09 19:36:00,73.2,66.0,29.99,East,86,0.0,0.0,78,0.00,,,0.00,weatherlink.com 1.10,2013-08-09 23:36:00,
2013-08-09 19:51:00,72.4,66.0,30.00,East,86,0.0,0.0,80,0.00,,,0.00,weatherlink.com 1.10,2013-08-09 23:51:00,
2013-08-09 20:06:00,71.5,67.0,30.00,East,86,0.0,0.0,84,0.00,,,0.00,weatherlink.com 1.10,2013-08-10 00:06:00,
2013-08-09 20:21:00,70.9,67.0,30.00,East,86,0.0,0.0,87,0.00,,,0.00,weatherlink.com 1.10,2013-08-10 00:21:00,
2013-08-09 20:36:00,70.3,67.0,30.00,East,86,0.0,0.0,88,0.00,,,0.00,weatherlink.com 1.10,2013-08-10 00:36:00,
2013-08-09 20:52:00,69.7,66.0,30.01,East,86,0.0,0.0,89,0.00,,,0.00,weatherlink.com 1.10,2013-08-10 00:52:00,
2013-08-09 21:07:00,69.3,67.0,30.02,East,86,0.0,0.0,91,0.00,,,0.00,weatherlink.com 1.10,2013-08-10 01:07:00,
2013-08-09 21:22:00,68.7,66.0,30.02,East,86,0.0,0.0,91,0.00,,,0.00,weatherlink.com 1.10,2013-08-10 01:22:00,
2013-08-09 21:37:00,68.0,66.0,30.02,East,86,0.0,0.0,93,0.00,,,0.00,weatherlink.com 1.10,2013-08-10 01:37:00,
2013-08-09 21:52:00,67.3,65.0,30.02,East,86,0.0,0.0,93,0.00,,,0.00,weatherlink.com 1.10,2013-08-10 01:52:00,
2013-08-09 22:07:00,66.9,65.0,30.03,East,86,0.0,0.0,94,0.00,,,0.00,weatherlink.com 1.10,2013-08-10 02:07:00,
2013-08-09 22:22:00,66.2,65.0,30.03,East,86,0.0,0.0,95,0.00,,,0.00,weatherlink.com 1.10,2013-08-10 02:22:00,
2013-08-09 22:37:00,65.7,64.0,30.03,East,86,0.0,0.0,95,0.00,,,0.00,weatherlink.com 1.10,2013-08-10 02:37:00,
2013-08-09 22:52:00,65.2,64.0,30.03,East,86,0.0,0.0,96,0.00,,,0.00,weatherlink.com 1.10,2013-08-10 02:52:00,
2013-08-09 23:07:00,64.8,64.0,30.03,East,86,0.0,0.0,96,0.00,,,0.00,weatherlink.com 1.10,2013-08-10 03:07:00,
2013-08-09 23:22:00,64.6,64.0,30.03,East,86,0.0,0.0,96,0.00,,,0.00,weatherlink.com 1.10,2013-08-10 03:22:00,
2013-08-09 23:37:00,64.5,64.0,30.03,East,86,0.0,0.0,97,0.00,,,0.00,weatherlink.com 1.10,2013-08-10 03:37:00,
2013-08-09 23:52:00,64.2,63.0,30.03,East,85,0.0,0.0,97,0.00,,,0.00,weatherlink.com 1.10,2013-08-10 03:52:00,